Hourly Weather Cerro Largo

Today, 25 June, Friday

Time Temperature Precipitation Wind Pressure Humidity
00:00 +12°C° 0 mm 0 mps 746 mmHg 91%
01:00 +12°C° 0 mm 0 mps 746 mmHg 89%
02:00 +12°C° 0 mm 0 mps 746 mmHg 86%
03:00 +12°C° 0 mm 0 mps 746 mmHg 88%
04:00 +12°C° 0 mm 1 mps 746 mmHg 90%
05:00 +11°C° 0 mm 1 mps 746 mmHg 92%
06:00 +12°C° 0 mm 1 mps 746 mmHg 91%
07:00 +12°C° 0 mm 1 mps 746 mmHg 89%
08:00 +13°C° 0 mm 2 mps 747 mmHg 88%
09:00 +15°C° 0 mm 2 mps 747 mmHg 81%
10:00 +16°C° 0 mm 3 mps 747 mmHg 73%
11:00 +18°C° 0 mm 3 mps 747 mmHg 66%
12:00 +19°C° 0 mm 3 mps 746 mmHg 64%
13:00 +20°C° 0 mm 3 mps 745 mmHg 61%
14:00 +20°C° 0 mm 2 mps 744 mmHg 58%
15:00 +19°C° 0 mm 2 mps 744 mmHg 65%
16:00 +18°C° 0 mm 2 mps 744 mmHg 71%
17:00 +17°C° 0 mm 2 mps 744 mmHg 78%
18:00 +17°C° 0 mm 2 mps 744 mmHg 79%
19:00 +16°C° 0 mm 2 mps 744 mmHg 81%
20:00 +16°C° 0 mm 2 mps 744 mmHg 82%
21:00 +16°C° 0.1 mm 2 mps 744 mmHg 84%
22:00 +18°C° 0.1 mm 1 mps 744 mmHg 86%
23:00 +18°C° 0.1 mm 1 mps 744 mmHg 88%

Tomorrow, 26 June, Saturday

Time Temperature Precipitation Wind Pressure Humidity
00:00 +18°C° 0.4 mm 1 mps 743 mmHg 91%
01:00 +18°C° 0.4 mm 1 mps 743 mmHg 93%
02:00 +18°C° 0.4 mm 1 mps 743 mmHg 96%
03:00 +18°C° 0.5 mm 1 mps 742 mmHg 96%
04:00 +18°C° 0.5 mm 1 mps 742 mmHg 96%
05:00 +17°C° 0.5 mm 2 mps 741 mmHg 96%
06:00 +18°C° 0.2 mm 2 mps 742 mmHg 95%
07:00 +18°C° 0.2 mm 2 mps 742 mmHg 94%
08:00 +19°C° 0.2 mm 2 mps 742 mmHg 93%
09:00 +19°C° 0.1 mm 2 mps 742 mmHg 90%
10:00 +20°C° 0.1 mm 3 mps 742 mmHg 87%
11:00 +21°C° 0.1 mm 3 mps 742 mmHg 84%
12:00 +21°C° 0.1 mm 3 mps 741 mmHg 85%
13:00 +21°C° 0.1 mm 2 mps 741 mmHg 86%
14:00 +22°C° 0.1 mm 1 mps 740 mmHg 87%
15:00 +21°C° 0.2 mm 1 mps 741 mmHg 90%
16:00 +21°C° 0.2 mm 1 mps 741 mmHg 93%
17:00 +20°C° 0.2 mm 1 mps 741 mmHg 95%
18:00 +20°C° 0.1 mm 1 mps 741 mmHg 96%
19:00 +19°C° 0.1 mm 2 mps 742 mmHg 97%
20:00 +19°C° 0.1 mm 2 mps 743 mmHg 98%
21:00 +17°C° 0.1 mm 2 mps 743 mmHg 97%
22:00 +16°C° 0.1 mm 3 mps 744 mmHg 97%
23:00 +14°C° 0.1 mm 3 mps 744 mmHg 96%

Day after tomorrow, 27 June, Sunday

Time Temperature Precipitation Wind Pressure Humidity
00:00 +14°C° 1.4 mm 3 mps 744 mmHg 96%
01:00 +14°C° 1.4 mm 3 mps 744 mmHg 97%
02:00 +13°C° 1.4 mm 3 mps 744 mmHg 97%
03:00 +13°C° 1.6 mm 3 mps 744 mmHg 97%
04:00 +12°C° 1.6 mm 3 mps 745 mmHg 96%
05:00 +12°C° 1.6 mm 3 mps 745 mmHg 96%
06:00 +11°C° 1.8 mm 3 mps 746 mmHg 96%
07:00 +11°C° 1.8 mm 3 mps 746 mmHg 96%
08:00 +11°C° 1.8 mm 3 mps 747 mmHg 96%
09:00 +11°C° 1.6 mm 3 mps 747 mmHg 96%
10:00 +10°C° 1.6 mm 3 mps 748 mmHg 96%
11:00 +10°C° 1.6 mm 3 mps 748 mmHg 96%
12:00 +10°C° 1.2 mm 3 mps 748 mmHg 96%
13:00 +10°C° 1.2 mm 3 mps 748 mmHg 96%
14:00 +10°C° 1.2 mm 3 mps 748 mmHg 96%
15:00 +10°C° 1 mm 3 mps 748 mmHg 96%
16:00 +10°C° 1 mm 3 mps 749 mmHg 96%
17:00 +10°C° 1 mm 3 mps 749 mmHg 96%
18:00 +10°C° 0.3 mm 3 mps 750 mmHg 95%
19:00 +10°C° 0.3 mm 3 mps 750 mmHg 95%
20:00 +10°C° 0.3 mm 3 mps 751 mmHg 94%
21:00 +10°C° 0.1 mm 3 mps 751 mmHg 94%
22:00 +9°C° 0.1 mm 3 mps 751 mmHg 94%
23:00 +9°C° 0.1 mm 3 mps 751 mmHg 94%

28 June, Monday

Time Temperature Precipitation Wind Pressure Humidity
00:00 +9°C° 0 mm 3 mps 751 mmHg 94%
01:00 +9°C° 0 mm 3 mps 751 mmHg 94%
02:00 +9°C° 0 mm 3 mps 751 mmHg 94%
03:00 +8°C° 0 mm 3 mps 752 mmHg 94%
04:00 +8°C° 0 mm 2 mps 752 mmHg 93%
05:00 +8°C° 0 mm 2 mps 752 mmHg 93%
06:00 +8°C° 0 mm 2 mps 752 mmHg 92%
07:00 +8°C° 0 mm 2 mps 753 mmHg 90%
08:00 +8°C° 0 mm 2 mps 753 mmHg 89%
09:00 +9°C° 0 mm 2 mps 753 mmHg 81%
10:00 +10°C° 0 mm 2 mps 753 mmHg 74%
11:00 +11°C° 0 mm 3 mps 754 mmHg 66%
12:00 +11°C° 0 mm 3 mps 753 mmHg 63%
13:00 +11°C° 0 mm 3 mps 753 mmHg 60%
14:00 +11°C° 0 mm 4 mps 753 mmHg 57%
15:00 +10°C° 0 mm 3 mps 753 mmHg 63%
16:00 +8°C° 0 mm 3 mps 753 mmHg 68%
17:00 +7°C° 0 mm 2 mps 753 mmHg 73%
18:00 +7°C° 0 mm 2 mps 754 mmHg 75%
19:00 +6°C° 0 mm 2 mps 754 mmHg 77%
20:00 +6°C° 0 mm 1 mps 754 mmHg 78%
21:00 +6°C° 0 mm 1 mps 754 mmHg 78%
22:00 +6°C° 0 mm 1 mps 754 mmHg 78%
23:00 +6°C° 0 mm 1 mps 754 mmHg 78%

29 June, Tuesday

Time Temperature Precipitation Wind Pressure Humidity
00:00 +5°C° 0 mm 1 mps 754 mmHg 79%
01:00 +5°C° 0 mm 1 mps 754 mmHg 81%
02:00 +4°C° 0 mm 1 mps 754 mmHg 83%
03:00 +4°C° 0 mm 1 mps 754 mmHg 85%
04:00 +4°C° 0 mm 1 mps 754 mmHg 86%
05:00 +3°C° 0 mm 1 mps 754 mmHg 88%
06:00 +4°C° 0 mm 1 mps 755 mmHg 85%
07:00 +5°C° 0 mm 1 mps 755 mmHg 81%
08:00 +6°C° 0 mm 1 mps 755 mmHg 78%
09:00 +6°C° 0 mm 2 mps 755 mmHg 72%
10:00 +7°C° 0 mm 2 mps 756 mmHg 65%
11:00 +9°C° 0 mm 2 mps 756 mmHg 59%
12:00 +9°C° 0 mm 2 mps 755 mmHg 57%
13:00 +9°C° 0 mm 2 mps 755 mmHg 56%
14:00 +9°C° 0 mm 2 mps 755 mmHg 55%
15:00 +8°C° 0 mm 2 mps 755 mmHg 58%
16:00 +9°C° 0 mm 1 mps 755 mmHg 62%
17:00 +8°C° 0 mm 1 mps 755 mmHg 65%
18:00 +7°C° 0 mm 1 mps 755 mmHg 69%
19:00 +5°C° 0 mm 0 mps 755 mmHg 72%
20:00 +4°C° 0 mm 0 mps 755 mmHg 76%
21:00 +4°C° 0 mm 0 mps 755 mmHg 78%
22:00 +3°C° 0 mm 0 mps 755 mmHg 79%
23:00 +3°C° 0 mm 0 mps 755 mmHg 81%

30 June, Wednesday

Time Temperature Precipitation Wind Pressure Humidity
00:00 +3°C° 0 mm 0 mps 755 mmHg 83%
01:00 +2°C° 0 mm 0 mps 755 mmHg 85%
02:00 +2°C° 0 mm 0 mps 754 mmHg 86%
03:00 +2°C° 0 mm 0 mps 754 mmHg 87%
04:00 +3°C° 0 mm 1 mps 754 mmHg 88%
05:00 +2°C° 0 mm 1 mps 754 mmHg 89%
06:00 +3°C° 0 mm 1 mps 754 mmHg 84%
07:00 +4°C° 0 mm 1 mps 755 mmHg 80%
08:00 +5°C° 0 mm 1 mps 755 mmHg 76%
09:00 +7°C° 0 mm 1 mps 755 mmHg 68%
10:00 +9°C° 0 mm 1 mps 755 mmHg 60%
11:00 +10°C° 0 mm 2 mps 755 mmHg 52%
12:00 +12°C° 0 mm 2 mps 754 mmHg 50%
13:00 +13°C° 0 mm 1 mps 753 mmHg 48%
14:00 +13°C° 0 mm 1 mps 753 mmHg 46%
15:00 +12°C° 0 mm 1 mps 752 mmHg 54%
16:00 +10°C° 0 mm 1 mps 752 mmHg 62%
17:00 +8°C° 0 mm 1 mps 752 mmHg 71%
18:00 +8°C° 0 mm 1 mps 752 mmHg 73%
19:00 +6°C° 0 mm 2 mps 752 mmHg 74%
20:00 +5°C° 0 mm 2 mps 752 mmHg 76%
21:00 +5°C° 0 mm 2 mps 752 mmHg 77%
22:00 +6°C° 0 mm 1 mps 752 mmHg 78%
23:00 +5°C° 0 mm 1 mps 752 mmHg 78%
Show more

We Need Your Consent

Meteoprog and our Service Providers may store and access personal data such as cookies, device identifiers or other similar technologies on your device and process such data to personalise content and ads, as well as provide social media features and to analyse the traffic.

  • Store and/or access information on your device

    Cookies, device identifiers or other information can be stored or accessed on your device for the purposes indicated above.

  • Personalised ads and content, ad and content measurement, audience insights, and products development

    Ads and content can be personalised based on a profile. More data can be added to better personalise ads and content. Ad and content performance can be measured. Insights about the audience who saw the ads and content can be derived. Such data can be used to develop or improve user’s experience, systems and software.

By clicking ‘I Agree’ you will allow the use of indicated cookies, device identifiers, web beacons or other similar technologies. Your settings can be changed in the browser on your device.

For certain purposes, legitimate interests may be relied on, rather than consent. You can read more about this in our Privacy and Cookie Policy.